Powrót do katalogu

STARLINK-31675

AktywnyŁącznośćVLEO
NORAD 59548·PAYLOAD·🇺🇸 United States

Wystrzelony Apr 18, 2024 z Cape Canaveral Space Force Station

Loading…

Następne Przeloty (najbliższe 24 godziny)

TLE

ŚwieżeSource: CelesTrak SupGP

Epoka: Sep 14, 2026, 21:03 UTC

1 59548C 24074Q   26257.87756944 -.00000079  00000+0 -28667-5 0  2578
2 59548  43.0025 354.9339 0001511 268.4255 319.6421 15.27583293    15

Śledź STARLINK-31675 w czasie rzeczywistym z AllMySat

Download on the App Store